Wind_Speed
16 17 18 19 20 20 20 20 20 20 20 21 21 21 21 21 22 23 24 24 25 26 26 27 28 29 29 29 29 30 30 30 30 29 29 29 29 30 30 29 30 33 33 31 32 34 32 30 30 30 31 31 31 31 31 31 32 32 32 32 33 33 33
14 15 17 19 20 21 22 22 21 21 21 22 22 23 23 23 24 25 26 26 27 27 27 28 28 29 29 29 30 30 31 32 32 31 32 32 32 32 32 32 32 33 35 34 33 34 34 33 33 33 34 34 34 35 34 35 35 35 35 35 35 35 35
8 10 12 14 17 19 20 21 22 22 22 23 23 24 24 25 25 26 27 27 28 28 28 28 29 30 29 29 30 31 31 32 32 32 33 33 34 34 34 34 34 34 35 36 34 33 34 35 34 34 35 35 34 35 36 37 38 38 38 38 37 37 38
5 6 7 9 11 13 15 17 18 20 22 23 24 24 25 26 26 27 28 28 29 29 29 30 30 30 30 29 30 31 32 32 32 33 34 34 34 35 35 34 35 36 36 36 36 35 34 35 35 34 34 34 33 34 35 36 38 39 39 39 38 38 39
6 6 7 7 8 9 10 11 13 15 16 18 20 21 23 24 25 26 27 28 28 29 30 30 30 31 31 30 31 32 32 33 33 33 34 35 35 36 36 35 36 36 36 37 38 36 34 35 36 34 34 35 34 34 35 36 37 38 38 38 38 38 39
8 9 9 9 10 10 10 11 11 12 13 14 15 17 18 20 21 23 24 25 26 27 28 28 29 30 30 30 31 32 32 33 32 33 34 35 35 35 35 36 36 36 37 38 39 38 35 36 37 36 35 35 34 34 35 36 36 37 37 37 38 38 38
10 11 11 11 12 12 12 13 13 14 14 15 15 16 17 18 19 20 21 22 23 24 25 26 27 27 28 29 30 31 31 31 31 32 33 34 34 34 34 35 35 36 36 37 38 38 37 37 38 37 36 37 35 34 35 36 37 38 38 38 38 38 38
12 12 13 13 13 14 14 14 14 15 16 17 17 18 19 19 20 20 21 21 22 22 23 23 24 25 25 26 27 28 29 29 30 31 32 32 32 33 33 34 34 35 36 37 38 39 38 37 38 38 38 38 37 36 37 38 38 39 40 39 38 38 37
14 14 15 15 15 16 16 16 16 16 17 18 19 20 21 21 21 22 22 22 23 23 23 24 24 24 24 25 25 26 27 27 28 29 30 31 31 32 32 33 34 35 36 37 38 39 39 38 39 40 40 40 39 39 39 38 38 39 39 38 38 38 38
16 17 17 17 17 17 17 17 17 18 19 19 20 22 23 23 23 24 24 24 24 25 25 25 25 25 25 25 26 26 27 26 27 27 28 29 30 30 31 32 34 35 35 36 38 39 39 40 41 42 42 42 41 39 37 37 37 38 37 36 38 39 39
18 19 19 20 19 19 19 19 19 19 20 20 21 22 23 24 25 25 26 26 27 27 27 27 27 26 26 27 27 27 28 27 28 28 28 29 29 29 30 31 33 34 35 35 37 38 39 40 42 42 42 42 40 38 37 36 36 37 36 36 37 39 40
21 21 21 21 22 22 22 21 21 21 21 21 22 22 23 25 26 27 27 28 28 28 29 29 29 29 28 28 28 29 29 29 29 29 30 30 30 30 31 32 32 33 34 34 36 37 39 41 42 41 41 41 39 37 36 35 35 36 36 36 38 39 40
24 24 23 24 24 24 23 23 23 22 22 22 22 23 23 24 26 27 28 28 29 29 29 30 30 30 30 29 30 30 31 31 31 31 31 32 32 33 33 33 34 34 34 34 35 37 40 41 40 40 41 40 37 35 35 34 35 35 35 36 38 38 38
27 26 25 25 25 25 25 24 24 23 22 22 23 23 23 24 26 28 29 29 29 29 30 30 30 31 31 30 30 31 31 32 33 33 33 34 34 35 35 35 35 36 36 36 37 39 42 42 41 40 40 38 37 36 35 35 34 34 34 35 35 35 35
29 28 27 26 26 26 26 24 24 23 23 24 24 23 23 25 27 28 29 29 29 30 30 30 29 30 30 30 31 30 31 31 32 33 34 34 35 36 37 37 37 37 37 37 38 40 43 43 41 41 40 39 38 38 37 36 35 34 33 32 32 33 35
30 28 27 26 26 26 26 24 22 23 23 23 23 23 24 26 27 27 28 29 29 30 29 28 29 29 29 30 31 30 30 30 30 30 32 34 35 36 37 38 39 38 38 39 40 41 42 43 42 41 41 40 39 40 38 36 34 35 34 33 34 36 37
29 27 26 25 24 25 26 24 22 22 22 22 21 21 23 25 26 26 27 27 28 29 29 27 27 27 27 27 27 27 29 29 27 27 29 31 33 34 36 38 38 38 39 40 40 41 42 43 43 42 41 40 39 39 39 36 36 38 38 36 37 39 41
27 26 25 24 23 23 24 24 22 21 22 21 20 20 21 22 22 23 23 24 25 27 29 28 27 26 25 25 24 24 26 25 23 24 27 28 29 31 33 35 35 35 37 38 38 40 41 43 43 43 42 41 39 37 36 37 39 41 40 39 40 42 41
25 25 24 23 22 21 22 22 22 20 20 20 19 18 17 17 18 20 22 24 26 28 28 28 28 26 24 23 22 21 20 17 16 20 25 27 27 29 31 31 31 31 33 34 34 35 37 40 41 42 42 42 40 37 35 37 41 41 39 40 42 42 41
24 24 23 21 21 21 21 21 21 20 20 19 18 16 16 16 18 21 24 25 26 26 25 26 26 25 23 22 22 21 20 20 19 21 25 27 27 29 30 28 27 27 28 29 30 31 33 36 38 39 40 41 42 40 38 38 40 40 40 42 41 41 42
23 23 22 21 20 21 20 20 21 21 20 19 18 17 17 19 21 23 24 24 24 24 23 24 24 24 23 23 22 21 22 23 23 23 25 25 26 26 25 23 23 24 24 25 27 28 30 33 35 36 38 39 40 41 41 40 40 41 42 42 41 41 42
23 23 23 21 20 20 20 19 20 21 20 20 19 18 18 20 21 22 22 24 24 23 23 23 22 23 23 23 22 21 20 20 20 21 22 23 22 22 21 21 22 23 23 23 24 25 26 28 30 33 35 36 36 39 39 37 38 41 41 40 40 40 41
23 23 23 22 20 19 19 19 19 20 20 19 19 18 18 18 20 21 21 23 23 23 21 19 18 21 23 23 22 22 20 19 19 19 20 21 21 20 22 24 25 25 24 23 23 24 25 26 27 28 29 30 31 34 36 34 35 39 39 38 38 40 41
23 23 23 23 22 21 19 19 19 19 19 19 19 18 18 18 19 20 20 21 21 18 15 14 17 21 23 24 23 23 22 22 22 21 20 20 20 22 24 26 26 26 24 22 22 23 24 25 26 26 26 26 26 28 31 33 33 34 34 35 37 39 40
23 23 23 24 24 23 21 20 20 19 19 19 19 19 18 18 18 18 18 20 19 16 14 17 21 24 25 25 25 24 24 24 24 23 22 21 21 23 24 26 27 26 25 23 23 24 24 25 25 25 25 27 27 27 30 32 31 30 31 33 35 37 40
23 23 24 24 24 24 23 22 21 20 19 18 18 19 18 17 16 16 17 19 21 21 22 24 25 26 26 26 25 25 25 25 24 24 23 22 22 23 24 26 27 27 27 26 24 24 25 26 26 24 24 27 29 32 34 34 32 30 31 32 34 36 39
23 23 24 24 24 24 24 23 22 21 20 18 18 18 18 17 17 17 16 17 19 21 23 24 24 25 26 26 25 24 23 23 23 23 23 22 21 22 24 26 26 26 27 27 25 24 24 24 24 24 25 27 29 32 34 33 31 31 32 32 33 35 36
23 23 23 23 23 23 23 23 21 20 20 20 19 20 19 19 19 18 17 17 18 19 20 19 19 22 24 24 24 22 20 19 19 19 20 21 21 22 24 25 24 24 24 24 24 24 25 24 25 26 27 28 29 30 30 30 30 31 32 31 32 32 33
23 23 21 20 20 20 20 20 18 19 21 22 21 21 21 20 19 18 19 19 20 20 20 18 16 17 20 23 23 21 18 17 16 17 18 19 20 21 22 22 22 21 20 20 20 22 23 24 26 27 27 28 29 28 28 29 30 31 32 31 31 31 31
22 21 20 20 20 19 18 18 20 23 25 24 23 23 21 20 19 18 18 18 18 17 16 16 15 16 18 21 22 20 18 16 16 17 18 17 17 18 20 21 20 19 17 16 16 17 19 21 22 23 23 24 26 28 28 29 30 31 32 32 32 31 31
23 22 20 20 19 18 19 22 25 26 26 25 24 23 22 21 20 17 16 16 16 15 15 15 15 17 19 20 20 19 18 17 17 17 17 17 17 18 18 19 20 19 17 14 12 12 14 15 18 20 21 21 23 25 26 28 29 31 32 32 31 31 31
23 22 22 21 20 19 21 24 25 25 24 23 23 23 22 22 20 18 17 18 18 18 18 16 16 18 19 20 19 19 18 17 17 17 16 17 18 18 17 18 20 20 19 17 14 12 11 10 11 13 16 18 21 22 24 26 27 28 30 30 30 30 32
23 22 22 22 21 21 22 23 23 22 22 21 21 22 22 22 21 21 21 21 20 19 18 17 17 18 18 18 18 18 17 17 17 17 16 17 17 18 18 18 19 19 18 18 17 15 13 11 9 9 10 12 14 16 19 22 23 25 27 28 30 31 31
26 24 22 22 22 22 22 22 22 21 20 20 19 19 20 21 22 22 21 21 20 19 19 18 18 18 17 17 17 17 17 17 17 17 16 17 17 18 18 18 17 17 17 18 17 16 16 14 12 10 9 9 9 10 12 15 18 22 24 26 27 27 25
27 26 24 23 22 21 21 21 20 20 19 18 17 18 20 21 21 21 20 19 19 19 19 19 19 18 18 18 18 17 17 17 17 16 16 16 17 18 18 18 17 16 16 17 16 16 16 15 14 13 11 11 10 9 10 11 13 17 20 21 21 21 20
27 26 24 23 21 20 20 20 19 19 18 17 17 19 20 20 19 19 19 19 19 19 19 19 19 19 19 19 18 18 18 18 17 17 16 16 16 17 18 17 17 16 16 16 16 16 16 15 15 14 14 13 13 12 13 13 14 15 17 18 18 19 19
Wind_Direction
245 244 244 245 248 251 254 255 255 254 254 253 251 249 248 247 246 247 248 248 248 246 245 245 244 244 244 243 242 241 240 239 238 238 237 238 238 238 239 239 241 247 251 251 253 254 252 251 252 252 250 250 249 248 248 248 249 249 249 248 248 248 247
251 249 248 248 248 250 251 252 252 252 251 251 251 250 249 248 246 247 248 248 248 247 246 246 246 245 244 242 241 240 239 238 237 236 236 236 237 238 239 239 241 246 251 252 254 256 255 253 253 254 253 252 252 252 252 252 253 253 252 252 252 251 251
264 260 257 256 254 253 253 254 253 252 251 251 251 252 251 250 248 248 248 248 248 248 248 247 247 247 246 244 243 242 240 239 238 236 236 236 236 237 238 239 240 243 248 252 253 255 257 255 252 252 253 253 252 251 252 252 253 253 253 253 252 252 253
282 277 272 267 264 262 259 258 257 256 256 255 254 254 254 253 252 251 251 251 251 251 250 250 249 249 248 246 245 245 243 242 241 240 240 239 239 240 240 240 241 242 246 251 253 254 256 257 254 252 251 250 249 249 249 249 251 252 252 253 253 252 253
288 284 280 276 272 269 266 264 262 260 260 260 259 259 259 258 257 256 255 255 254 254 253 252 252 251 250 249 248 247 246 246 245 244 244 244 244 244 244 244 244 244 245 249 252 253 254 256 255 253 251 249 247 246 247 247 248 249 250 251 252 252 253
289 285 282 278 274 271 269 268 266 265 264 263 262 261 262 262 261 260 259 258 257 257 256 255 254 253 252 251 250 249 249 248 247 246 246 246 246 245 246 246 246 246 247 248 251 252 253 255 255 253 251 250 247 246 247 248 248 249 250 250 251 252 253
288 287 284 281 278 274 272 271 269 269 268 266 265 263 262 261 261 261 260 259 259 258 258 257 256 255 254 253 252 251 250 249 248 247 246 246 246 245 246 246 246 246 247 248 250 252 252 254 255 254 251 251 248 246 246 247 248 250 251 250 251 253 255
291 289 287 284 282 280 277 275 273 272 271 270 268 266 264 263 262 262 262 261 260 259 258 257 256 255 255 254 254 253 252 251 250 249 248 247 246 246 245 246 246 246 247 248 249 251 252 253 255 255 252 251 249 246 246 247 249 252 254 254 255 256 257
296 292 289 286 284 283 282 280 278 276 274 272 271 269 268 267 266 266 265 264 263 262 261 259 258 256 255 254 254 254 254 253 252 252 252 251 250 249 248 247 247 247 248 248 249 251 252 252 254 254 253 252 251 250 250 251 251 253 255 257 258 258 257
297 294 290 287 284 282 281 280 278 276 274 274 273 272 271 270 269 268 267 266 266 265 264 262 261 260 259 257 256 256 256 255 254 253 254 254 253 252 251 250 250 249 249 249 251 252 253 253 254 255 256 256 256 256 255 253 253 254 254 255 257 258 258
299 295 291 288 284 281 279 278 275 274 273 273 273 273 273 272 270 268 267 267 266 265 264 263 263 262 261 261 260 259 259 258 257 256 255 255 255 254 253 253 252 252 252 251 252 254 254 255 257 257 258 260 260 259 257 255 255 255 253 252 253 256 259
302 299 295 290 286 283 280 277 275 273 272 272 272 272 273 273 272 270 268 266 265 264 264 263 262 261 260 261 261 261 261 260 259 258 258 257 257 256 256 255 255 255 255 254 255 256 256 257 259 260 261 262 262 261 261 259 257 256 254 253 253 255 258
304 301 298 293 288 285 281 278 276 273 272 271 269 268 269 270 270 269 268 268 267 266 265 263 263 262 259 258 258 258 258 259 258 258 258 258 258 257 257 256 256 256 257 257 257 257 258 258 260 261 262 263 264 264 264 261 258 257 256 255 255 257 259
307 303 300 295 290 286 282 280 277 275 273 269 267 265 265 265 265 265 266 268 269 268 267 266 266 265 263 261 259 258 258 258 258 257 257 256 256 257 256 256 256 256 256 257 257 258 259 260 260 262 263 265 265 263 263 262 261 260 259 259 260 262 261
308 305 301 296 292 287 284 281 279 277 274 271 269 268 265 262 263 266 267 267 267 268 269 270 269 268 268 267 264 263 262 261 261 260 259 258 257 257 256 256 256 256 256 256 257 258 260 261 262 263 263 264 264 263 263 263 263 263 262 262 262 260 257
308 304 300 296 293 290 287 284 282 279 275 273 272 270 267 265 265 267 269 269 269 269 269 269 270 271 271 271 270 269 267 265 264 265 264 262 260 259 258 257 256 256 256 256 256 258 259 261 262 263 263 263 263 263 262 262 263 261 258 255 254 253 252
306 304 301 297 294 292 289 287 285 280 277 275 274 271 269 268 269 270 272 273 272 271 269 268 269 271 272 273 274 274 272 271 271 269 266 265 263 262 261 260 259 258 257 256 256 257 258 259 260 261 261 261 261 262 261 260 258 257 254 252 250 250 251
304 302 301 300 297 295 292 290 288 284 281 278 276 274 273 274 275 275 273 271 271 272 273 273 271 270 270 271 271 274 278 280 277 271 268 268 267 266 265 264 264 263 261 259 258 257 256 256 257 258 258 258 257 258 258 258 256 255 255 253 251 252 253
302 301 301 300 299 296 294 292 290 288 285 282 278 276 276 278 277 273 269 269 272 276 279 279 276 273 271 268 265 267 272 272 266 266 269 270 270 270 268 268 269 268 266 265 263 261 259 257 255 255 256 256 255 253 251 252 255 256 255 254 254 254 251
302 301 300 300 299 297 296 294 292 290 287 284 280 275 270 269 270 270 272 276 280 283 284 284 283 282 278 269 262 259 256 250 250 261 268 270 271 272 272 274 274 272 270 269 266 263 263 261 259 256 254 254 254 252 248 247 249 251 252 253 254 254 251
302 301 300 300 299 297 296 295 293 291 288 285 283 276 267 266 269 273 277 280 282 283 284 285 287 286 283 278 273 268 263 260 259 263 267 270 272 273 274 276 275 273 272 271 268 265 263 263 263 261 258 255 252 251 250 248 247 247 248 251 252 253 254
302 301 300 300 299 297 296 294 292 291 290 287 284 279 273 272 273 275 278 279 279 280 282 284 285 283 282 283 282 280 277 275 273 271 271 271 270 270 271 271 272 271 270 269 269 267 264 262 261 261 261 259 255 252 251 249 248 247 248 250 252 252 254
301 301 300 301 300 298 296 294 291 291 291 289 286 283 278 275 273 273 272 273 275 277 280 281 279 279 281 282 281 280 278 275 272 270 270 269 268 267 267 268 269 270 270 268 266 264 261 259 257 256 257 258 257 255 253 252 251 250 250 250 251 251 252
303 303 304 304 303 301 298 295 292 291 291 290 289 286 282 277 274 271 269 268 271 277 280 276 272 274 277 277 276 277 276 273 271 268 266 265 265 265 266 267 268 270 270 269 265 261 259 258 256 254 253 253 254 255 256 257 256 253 249 248 250 250 250
305 305 305 305 305 304 301 298 296 293 292 291 290 287 285 282 278 274 268 262 262 263 263 263 268 272 275 277 278 278 276 274 274 273 269 264 261 262 265 268 271 273 272 269 265 262 260 258 256 255 255 254 252 252 256 261 261 256 251 250 249 249 248
306 306 306 305 305 304 303 301 300 298 295 293 290 288 289 287 282 276 268 260 258 258 261 266 273 278 280 280 280 279 277 275 274 272 270 266 262 263 266 269 273 274 273 270 266 263 261 259 259 260 259 255 251 252 256 259 260 259 257 254 250 246 245
306 306 305 305 304 304 303 303 303 302 299 297 294 294 295 294 289 285 278 270 267 267 269 274 280 282 282 282 282 282 281 280 277 275 272 269 265 265 268 271 273 273 272 269 267 265 264 262 262 261 259 255 253 255 256 256 256 259 259 255 249 244 241
304 304 304 305 306 306 305 304 305 302 297 295 297 299 300 299 298 296 293 289 285 284 283 285 285 285 286 288 290 291 289 284 280 275 271 268 265 265 269 272 273 272 272 272 270 268 266 263 261 259 258 258 259 259 257 253 254 257 255 251 246 242 239
301 301 302 302 300 299 300 302 298 291 289 292 297 299 298 298 298 298 296 296 296 295 291 288 284 284 288 292 295 298 296 289 280 270 265 266 266 266 268 270 271 273 277 277 274 270 266 263 262 259 258 259 261 261 257 253 253 253 249 244 242 239 238
296 295 294 293 292 291 289 285 280 280 286 291 293 292 292 292 291 292 294 298 301 296 285 279 277 279 285 291 295 298 298 293 284 272 264 264 266 267 267 266 265 269 276 281 281 276 270 266 263 261 260 260 261 261 258 254 252 249 244 239 236 234 232
291 288 286 286 287 286 279 274 275 280 285 287 286 286 286 285 285 287 290 291 290 282 274 274 277 279 283 288 292 296 296 291 287 281 271 264 263 265 267 266 263 262 266 275 283 283 276 270 264 261 260 260 259 258 256 252 249 245 240 236 232 229 228
288 285 283 281 281 280 278 278 280 282 283 282 281 280 280 279 280 281 279 276 276 274 273 274 276 278 283 287 290 293 293 289 288 285 278 269 264 263 265 266 264 262 263 268 273 278 283 284 277 266 260 256 256 255 253 250 246 241 236 231 224 223 226
289 285 282 280 278 279 281 283 284 283 282 280 278 277 277 276 274 272 273 275 276 277 276 275 275 278 283 286 288 289 290 288 288 286 281 274 268 264 263 264 265 265 265 266 269 272 276 281 286 283 272 262 256 254 250 247 243 238 233 226 219 218 220
295 291 286 283 281 283 284 284 284 284 282 279 277 276 275 273 272 273 276 279 280 278 277 277 278 280 282 283 285 287 287 286 287 286 282 277 271 266 264 264 265 265 265 265 267 269 270 272 275 278 278 273 263 253 247 243 239 233 225 218 215 215 215
296 295 293 289 288 288 287 286 286 285 283 280 278 276 275 275 278 279 279 279 279 278 275 275 275 278 280 281 283 284 285 285 285 284 282 279 274 269 266 264 263 262 262 263 264 264 264 265 264 263 264 264 259 251 243 236 231 225 220 216 217 220 222
296 296 294 292 291 289 287 287 288 287 284 279 274 273 275 279 282 282 279 279 281 279 276 274 274 275 278 280 282 283 283 283 282 281 280 278 275 272 270 266 262 259 258 259 260 260 261 261 259 256 254 254 252 249 244 239 235 231 229 230 232 233 233
Height
1464 1464 1465 1465 1465 1466 1466 1466 1466 1467 1466 1466 1467 1467 1468 1468 1469 1469 1470 1471 1471 1472 1473 1473 1473 1474 1475 1477 1478 1479 1479 1480 1481 1482 1483 1483 1484 1485 1485 1486 1486 1485 1485 1487 1487 1488 1491 1493 1494 1494 1496 1497 1497 1498 1499 1500 1500 1501 1501 1502 1502 1503 1504
1462 1462 1462 1462 1463 1463 1463 1463 1463 1464 1464 1464 1464 1464 1465 1465 1466 1466 1466 1467 1467 1468 1469 1469 1470 1470 1471 1472 1473 1474 1475 1475 1477 1477 1478 1479 1479 1480 1481 1482 1482 1482 1481 1482 1483 1484 1485 1488 1490 1490 1491 1492 1493 1494 1495 1495 1496 1496 1497 1497 1498 1499 1499
1461 1461 1461 1460 1460 1460 1460 1460 1460 1461 1461 1461 1461 1461 1462 1462 1463 1463 1463 1463 1464 1464 1465 1465 1466 1467 1467 1469 1469 1470 1470 1471 1472 1473 1473 1474 1475 1475 1476 1477 1478 1478 1477 1478 1479 1480 1480 1482 1485 1485 1486 1487 1488 1489 1490 1490 1490 1491 1491 1492 1493 1494 1494
1461 1460 1460 1459 1459 1458 1458 1458 1458 1458 1458 1458 1458 1459 1459 1459 1460 1460 1460 1460 1461 1461 1462 1462 1462 1463 1464 1465 1465 1465 1466 1467 1468 1468 1469 1470 1470 1471 1472 1473 1474 1474 1474 1473 1474 1475 1476 1477 1479 1481 1481 1482 1483 1484 1484 1485 1485 1485 1486 1487 1488 1489 1489
1460 1460 1459 1458 1458 1457 1457 1456 1456 1456 1456 1456 1456 1456 1456 1456 1456 1457 1457 1457 1457 1458 1458 1458 1459 1459 1460 1461 1461 1461 1462 1463 1464 1464 1465 1465 1466 1467 1468 1469 1469 1470 1470 1469 1469 1470 1472 1472 1473 1475 1475 1476 1478 1479 1479 1479 1480 1480 1481 1482 1483 1484 1485
1459 1459 1458 1457 1457 1456 1456 1455 1455 1455 1454 1454 1454 1454 1454 1453 1453 1453 1453 1454 1454 1454 1454 1455 1455 1456 1456 1457 1457 1457 1458 1458 1460 1460 1460 1461 1462 1463 1463 1464 1465 1465 1465 1465 1465 1466 1467 1467 1468 1470 1471 1471 1473 1474 1474 1474 1474 1475 1476 1478 1478 1479 1480
1458 1457 1456 1456 1455 1455 1454 1454 1454 1453 1453 1452 1452 1452 1451 1451 1451 1451 1451 1451 1451 1451 1451 1451 1452 1452 1452 1453 1453 1453 1454 1454 1455 1456 1456 1456 1457 1458 1459 1459 1460 1460 1460 1460 1460 1460 1461 1462 1462 1464 1465 1466 1467 1469 1468 1468 1469 1470 1471 1472 1473 1473 1475
1456 1455 1455 1454 1453 1453 1452 1452 1452 1451 1451 1450 1449 1449 1449 1448 1448 1448 1448 1448 1448 1448 1448 1448 1448 1449 1449 1449 1449 1450 1450 1450 1451 1451 1451 1452 1453 1454 1454 1455 1455 1455 1456 1456 1455 1455 1456 1457 1457 1458 1459 1460 1461 1463 1463 1463 1465 1465 1466 1467 1468 1469 1470
1454 1453 1453 1452 1451 1451 1450 1450 1449 1449 1448 1447 1447 1446 1446 1446 1446 1446 1445 1445 1445 1445 1445 1445 1445 1445 1445 1446 1446 1446 1446 1447 1447 1447 1447 1448 1449 1449 1450 1450 1450 1451 1451 1451 1451 1450 1451 1452 1451 1452 1453 1453 1455 1457 1458 1460 1461 1461 1461 1462 1463 1463 1464
1452 1451 1451 1450 1449 1448 1448 1447 1447 1446 1445 1445 1444 1443 1443 1443 1443 1443 1442 1442 1442 1442 1442 1442 1442 1442 1442 1442 1442 1442 1442 1443 1443 1443 1443 1444 1444 1445 1445 1446 1446 1446 1446 1447 1446 1446 1447 1446 1446 1446 1447 1448 1450 1453 1454 1455 1456 1456 1458 1458 1457 1457 1457
1450 1449 1448 1447 1447 1446 1445 1445 1444 1443 1443 1442 1442 1441 1440 1440 1440 1439 1439 1439 1439 1438 1438 1438 1438 1438 1438 1438 1438 1438 1438 1438 1439 1439 1439 1439 1440 1440 1441 1441 1441 1441 1442 1442 1442 1442 1442 1441 1441 1442 1443 1444 1445 1448 1449 1450 1451 1451 1452 1453 1452 1451 1451
1447 1446 1445 1444 1443 1443 1442 1441 1441 1440 1440 1440 1439 1438 1437 1436 1436 1435 1435 1435 1435 1435 1434 1434 1434 1434 1434 1434 1434 1434 1434 1434 1434 1435 1435 1435 1435 1436 1436 1437 1437 1437 1437 1438 1437 1437 1437 1436 1436 1437 1438 1439 1441 1442 1444 1445 1446 1445 1446 1447 1447 1446 1446
1443 1442 1441 1440 1439 1439 1438 1438 1437 1437 1437 1436 1435 1435 1434 1433 1432 1431 1430 1430 1430 1430 1430 1430 1430 1430 1430 1430 1430 1430 1430 1430 1430 1430 1431 1431 1431 1431 1432 1432 1432 1432 1433 1433 1433 1432 1431 1431 1432 1433 1433 1434 1436 1438 1438 1439 1440 1440 1441 1441 1441 1442 1442
1439 1438 1437 1436 1435 1434 1434 1434 1433 1433 1432 1432 1431 1431 1430 1429 1427 1426 1426 1426 1426 1425 1425 1425 1425 1425 1425 1426 1426 1426 1425 1425 1425 1425 1426 1426 1426 1426 1427 1427 1427 1428 1428 1428 1428 1426 1425 1426 1428 1428 1429 1431 1432 1432 1433 1433 1434 1435 1436 1436 1437 1438 1438
1435 1434 1433 1432 1431 1429 1429 1429 1429 1428 1428 1427 1427 1426 1426 1424 1423 1422 1422 1421 1421 1421 1420 1420 1420 1420 1420 1420 1420 1421 1421 1420 1420 1420 1420 1421 1421 1421 1421 1422 1422 1422 1423 1423 1422 1421 1420 1421 1423 1424 1425 1426 1426 1427 1428 1428 1429 1430 1431 1431 1432 1432 1432
1431 1430 1429 1427 1426 1425 1424 1424 1424 1424 1423 1423 1423 1422 1421 1420 1419 1418 1417 1417 1416 1416 1416 1416 1416 1416 1416 1415 1415 1415 1415 1415 1416 1416 1415 1415 1415 1415 1416 1416 1416 1417 1417 1417 1417 1416 1416 1416 1417 1418 1419 1420 1420 1421 1422 1424 1424 1424 1425 1425 1425 1425 1425
1427 1426 1425 1423 1423 1421 1419 1420 1420 1419 1419 1419 1419 1418 1417 1416 1415 1414 1413 1413 1412 1411 1411 1411 1412 1412 1411 1411 1410 1410 1410 1411 1411 1411 1410 1410 1410 1410 1410 1410 1410 1410 1411 1411 1411 1411 1411 1411 1412 1412 1413 1414 1415 1415 1416 1418 1417 1416 1417 1419 1418 1418 1418
1423 1422 1421 1420 1419 1418 1416 1415 1415 1415 1415 1415 1414 1414 1413 1412 1411 1410 1409 1408 1407 1406 1406 1407 1407 1408 1407 1407 1406 1406 1406 1407 1407 1407 1406 1405 1405 1405 1404 1404 1405 1405 1405 1405 1406 1406 1406 1406 1406 1406 1407 1408 1409 1410 1411 1410 1409 1410 1412 1413 1412 1412 1413
1420 1418 1418 1417 1415 1414 1413 1412 1411 1411 1411 1410 1411 1410 1409 1409 1407 1406 1404 1404 1403 1402 1402 1402 1402 1403 1404 1403 1403 1403 1403 1403 1404 1403 1402 1401 1401 1400 1399 1399 1400 1399 1399 1400 1400 1400 1400 1400 1400 1401 1401 1401 1402 1404 1405 1404 1403 1405 1406 1406 1406 1408 1409
1417 1415 1414 1414 1412 1411 1410 1409 1408 1408 1407 1407 1407 1407 1406 1405 1403 1402 1401 1400 1400 1399 1398 1398 1397 1398 1399 1399 1399 1399 1399 1399 1400 1399 1398 1398 1397 1395 1395 1395 1396 1395 1395 1395 1394 1394 1394 1394 1394 1395 1395 1395 1396 1397 1399 1398 1398 1399 1400 1400 1401 1403 1403
1414 1412 1411 1411 1409 1408 1407 1406 1404 1404 1404 1403 1403 1403 1403 1401 1400 1399 1398 1397 1396 1396 1395 1394 1394 1394 1394 1394 1394 1394 1394 1395 1395 1395 1394 1393 1393 1392 1392 1393 1392 1391 1391 1390 1390 1389 1389 1389 1389 1389 1389 1389 1390 1390 1392 1392 1393 1394 1394 1395 1396 1397 1397
1410 1409 1408 1407 1406 1405 1404 1403 1402 1400 1400 1400 1400 1400 1399 1398 1397 1396 1395 1394 1393 1393 1392 1392 1391 1390 1390 1390 1390 1390 1391 1391 1391 1391 1390 1389 1389 1389 1389 1389 1388 1387 1387 1386 1386 1385 1385 1384 1384 1384 1384 1384 1384 1384 1386 1387 1387 1388 1389 1390 1391 1392 1392
1407 1406 1404 1404 1403 1402 1401 1400 1399 1398 1397 1396 1396 1396 1396 1395 1394 1393 1392 1391 1390 1389 1389 1389 1388 1387 1386 1386 1386 1386 1386 1386 1386 1386 1386 1386 1386 1386 1385 1384 1383 1382 1382 1382 1381 1381 1381 1380 1380 1380 1380 1380 1380 1380 1381 1382 1382 1383 1385 1385 1386 1387 1387
1404 1403 1401 1400 1399 1399 1398 1397 1396 1395 1394 1393 1393 1393 1392 1392 1391 1390 1389 1388 1387 1387 1387 1386 1385 1383 1383 1383 1383 1382 1382 1381 1381 1381 1381 1381 1381 1381 1380 1379 1379 1378 1378 1377 1377 1377 1376 1376 1376 1376 1375 1376 1376 1376 1376 1376 1377 1379 1380 1380 1380 1381 1382
1402 1400 1399 1397 1396 1395 1395 1394 1393 1392 1391 1391 1390 1389 1389 1388 1388 1387 1386 1385 1385 1384 1384 1382 1381 1380 1379 1379 1379 1379 1378 1377 1377 1376 1376 1376 1376 1376 1376 1375 1374 1374 1374 1373 1372 1372 1372 1371 1371 1371 1371 1371 1372 1372 1371 1371 1372 1373 1374 1375 1376 1377 1378
1399 1398 1396 1395 1393 1392 1391 1390 1390 1389 1389 1388 1387 1386 1386 1385 1384 1384 1383 1382 1381 1381 1380 1379 1378 1377 1376 1376 1375 1375 1374 1373 1372 1372 1372 1372 1372 1372 1372 1371 1370 1370 1369 1368 1368 1367 1367 1367 1367 1367 1367 1367 1368 1367 1367 1367 1368 1369 1369 1370 1371 1372 1373
1396 1395 1394 1392 1391 1389 1388 1387 1386 1386 1385 1385 1384 1383 1382 1381 1381 1380 1380 1379 1378 1378 1377 1376 1375 1373 1373 1372 1371 1371 1370 1369 1368 1368 1368 1368 1368 1368 1367 1367 1367 1366 1365 1364 1364 1363 1363 1363 1363 1363 1362 1363 1363 1362 1362 1363 1364 1364 1365 1366 1367 1368 1368
1393 1392 1391 1389 1388 1386 1385 1384 1383 1383 1382 1381 1380 1380 1379 1378 1377 1377 1376 1376 1375 1374 1373 1372 1371 1370 1369 1369 1368 1367 1366 1366 1365 1365 1364 1364 1364 1364 1363 1363 1363 1362 1361 1360 1360 1359 1359 1359 1359 1358 1358 1358 1358 1357 1358 1358 1359 1360 1361 1362 1363 1363 1364
1390 1389 1388 1387 1386 1384 1383 1382 1381 1380 1379 1378 1377 1377 1376 1375 1375 1374 1373 1372 1371 1370 1369 1369 1369 1368 1367 1366 1365 1364 1363 1363 1362 1362 1361 1361 1361 1360 1360 1360 1359 1358 1357 1357 1356 1355 1355 1354 1354 1353 1353 1353 1353 1353 1354 1354 1355 1356 1357 1358 1359 1359 1360
1387 1386 1385 1384 1383 1382 1381 1379 1377 1376 1375 1375 1374 1374 1373 1372 1372 1371 1370 1369 1368 1367 1367 1366 1366 1365 1364 1363 1362 1361 1360 1359 1359 1358 1358 1358 1357 1357 1357 1356 1356 1355 1354 1353 1353 1352 1351 1350 1350 1349 1349 1349 1349 1349 1350 1350 1351 1352 1353 1354 1355 1356 1358
1384 1383 1382 1381 1379 1378 1377 1375 1374 1373 1372 1371 1371 1370 1369 1368 1368 1367 1367 1367 1365 1364 1364 1363 1363 1362 1361 1360 1359 1358 1357 1356 1356 1355 1354 1354 1354 1354 1354 1353 1353 1352 1352 1351 1350 1349 1348 1347 1347 1346 1346 1346 1345 1346 1346 1347 1348 1349 1350 1351 1353 1354 1355
1381 1379 1378 1377 1376 1374 1373 1371 1370 1369 1368 1368 1367 1366 1365 1364 1364 1364 1363 1363 1362 1361 1361 1360 1360 1358 1358 1357 1356 1355 1354 1353 1353 1352 1351 1351 1351 1351 1351 1350 1349 1349 1349 1349 1348 1348 1347 1346 1345 1344 1343 1343 1343 1343 1343 1344 1345 1346 1347 1349 1350 1351 1352
1376 1375 1374 1373 1372 1371 1369 1367 1366 1365 1364 1364 1363 1362 1361 1360 1360 1359 1359 1359 1358 1358 1357 1357 1356 1355 1354 1354 1353 1352 1351 1351 1350 1349 1348 1348 1348 1347 1347 1347 1346 1346 1346 1346 1346 1346 1345 1344 1344 1343 1342 1341 1341 1341 1341 1342 1343 1344 1345 1346 1348 1349 1351
1371 1371 1370 1369 1367 1366 1365 1364 1362 1362 1361 1360 1359 1359 1358 1356 1356 1356 1356 1355 1355 1354 1354 1353 1353 1352 1351 1351 1350 1349 1349 1348 1347 1347 1346 1345 1345 1344 1344 1344 1344 1344 1344 1343 1343 1343 1343 1343 1342 1342 1341 1341 1340 1340 1340 1341 1341 1342 1343 1345 1346 1348 1349
1367 1366 1365 1364 1363 1362 1361 1360 1359 1358 1357 1357 1356 1355 1354 1353 1353 1353 1352 1352 1351 1351 1350 1350 1349 1349 1348 1348 1347 1347 1346 1345 1344 1344 1343 1343 1342 1341 1341 1341 1341 1341 1341 1341 1341 1341 1341 1341 1341 1340 1340 1340 1340 1340 1340 1341 1341 1342 1343 1344 1346 1347 1348
1362 1362 1361 1360 1359 1358 1357 1356 1355 1354 1354 1353 1353 1352 1351 1350 1350 1349 1349 1348 1348 1347 1347 1346 1346 1346 1345 1345 1344 1344 1343 1342 1342 1341 1341 1340 1339 1339 1338 1338 1338 1338 1338 1338 1338 1338 1338 1338 1338 1338 1339 1339 1339 1339 1340 1340 1341 1342 1343 1344 1344 1345 1347